Regional Weather Roundup
Issued by NWS

Home | Current Version | Previous Version | Text Only | Print | Product List | Glossary Off
Versions: 1 2 3 4 5 6 7 8 9 10 11 12 13 14 15 16 17 18 19 20 21 22 23 24 25 26 27 28 29 30 31 32 33 34 35 36 37 38 39 40 41 42 43 44 45 46 47 48 49 50

000
ASUS43 KIND 301459
RWRIN

WEATHER ROUNDUP FOR INDIANA
NATIONAL WEATHER SERVICE INDIANAPOLIS IN
1100 AM EDT TUE AUG 30 2016

NOTE: "FAIR" INDICATES FEW OR NO CLOUDS BELOW 12,000 FEET WITH NO
SIGNIFICANT WEATHER AND/OR OBSTRUCTIONS TO VISIBILITY.

* - STATION DOES NOT REPORT WEATHER SUCH AS PRECIPITATION OR FOG.

+ - STATION NOT QUALITY CONTROLLED BY THE NATIONAL WEATHER SERVICE.
    USE DATA WITH CAUTION...ESPECIALLY DEWPOINT AND RELATIVE
    HUMIDITY OBSERVATIONS.

INZ001>003-010>013-019-020-301600-
NORTHWEST INDIANA

CITY           SKY/WX    TMP DP  RH WIND       PRES   REMARKS
GARY /AIRPORT/ CLOUDY    75  75 100 CALM      30.14S FOG
KNOX *+        CLOUDY    72  55  56 CALM      30.16S
MONTICELLO +   CLOUDY    77  69  76 W7        30.14F
VALPARAISO     CLOUDY    72  70  94 E9        30.14F

$$

LMZ046-743>745-301600-
SOUTHERN LAKE MICHIGAN

STATION/POSITION TIME  TEMP    WIND        PRES    WAVE
                       AIR SEA DIR/SP/G            HT
                 (UTC) (F)     (DEG/KT/KT) (MB)    (FT)
BURNS HARBOR     1406   73     140/  3/ 11 1021.0F
MICHIGAN CITY    1400   73     170/  3/  5   N/A
5NW MICH CITY    1400   72 72  200/  2/  4   N/A     1

$$

INZ004-005-014>016-021>024-301600-
NORTH CENTRAL INDIANA

CITY           SKY/WX    TMP DP  RH WIND       PRES   REMARKS
ELKHART        PTSUNNY  N/A N/A N/A N9        30.17R
GOSHEN         PTSUNNY   75  66  73 S5        30.16S
SOUTH BEND     CLOUDY    72  69  90 N7        30.17R

$$

INZ006>009-017-018-025>027-301600-
NORTHEAST INDIANA

CITY           SKY/WX    TMP DP  RH WIND       PRES   REMARKS
ANGOLA *+      SUNNY     75  68  78 N3        30.17S
FORT WAYNE     PTSUNNY   80  67  64 S6        30.17S

$$

INZ028-029-035-036-043>045-051>053-301600-
WEST CENTRAL INDIANA

CITY           SKY/WX    TMP DP  RH WIND       PRES   REMARKS
CRAWFORDSVL +  SUNNY     80  74  81 CALM      30.16S
LAFAYETTE      CLOUDY    77  74  90 W14       30.15S
TERRE HAUTE    SUNNY     84  72  67 S3        30.15S

$$

INZ030>032-037>040-046>048-054>057-064-065-301600-
CENTRAL INDIANA

CITY           SKY/WX    TMP DP  RH WIND       PRES   REMARKS
COLUMBUS       SUNNY     81  73  78 CALM      30.16S
INDIANAPOLIS   MOSUNNY   82  70  66 SE7       30.15S
-EAGLE CREEK   SUNNY     82  68  62 S5        30.15S
KOKOMO *+      CLOUDY    79  72  78 S6        30.16F
MT COMFORT *+  SUNNY     81  72  74 S3        30.17S
SHELBYVILLE    SUNNY     83  69  62 SW3       30.15F

$$

INZ033-034-041-042-049-050-058-059-301600-
EAST CENTRAL INDIANA

CITY           SKY/WX    TMP DP  RH WIND       PRES   REMARKS
MUNCIE         MOSUNNY   82  69  64 SW6       30.17S

$$

INZ060-061-067>069-081>083-085>088-301600-
SOUTHWEST INDIANA

CITY           SKY/WX    TMP DP  RH WIND       PRES   REMARKS
EVANSVILLE     SUNNY     85  72  65 CALM      30.13S
HUNTINGBURG *+ SUNNY     84  72  65 E7        30.13F

$$

INZ062-063-066-070>080-084-089>092-301600-
SOUTH CENTRAL AND SOUTHEAST INDIANA

CITY           SKY/WX    TMP DP  RH WIND       PRES   REMARKS
BLOOMINGTON    SUNNY     83  71  67 CALM      30.15F
MADISON *+     SUNNY     81  66  61 E6        30.18S

$$




USA.gov is the U.S. government's official web portal to all federal, state and local government web resources and services.